Kokomo, IN

4:22 PM EDT on May 28, 2017 (GMT -0400)
Kokomo Municipal

Weather History for KOKK - December, 2013

Change the Weather History Date:

Wednesday, December 11, 2013

  Actual Average (KGUS) Record (KGUS)
Temperature  
Mean Temperature 16 °F -  
Max Temperature 26 °F 37 °F 61 °F (2015)
Min Temperature 6 °F 26 °F 6 °F (2013)
Degree Days  
Heating Degree Days 49    
Moisture  
Dew Point 11 °F    
Average Humidity 73    
Maximum Humidity 86    
Minimum Humidity 55    
Precipitation  
Precipitation 0.00 in - - ()
Sea Level Pressure  
Sea Level Pressure 30.36 in    
Wind  
Wind Speed 8 mph (West)    
Max Wind Speed 20 mph    
Max Gust Speed 23 mph    
Visibility 10 miles    
Events      
Averages and records for this station are not official NWS values.
T = Trace of Precipitation, MM = Missing Value Source: NWS Daily Summary

Daily Weather History Graph

Daily Weather History Graph

Search for Another Location

Airport or City:

Trip Planner

Search our weather history database for the weather conditions in past years. The results will help you decide how hot, cold, wet, or windy it might be!

Date:

Astronomy

Dec. 11, 2013 Rise Set
Actual Time 6:57 AM CST 4:17 PM CST
Civil Twilight 6:27 AM CST 4:48 PM CST
Nautical Twilight 5:52 AM CST 5:22 PM CST
Astronomical Twilight 5:19 AM CST 5:55 PM CST
Moon 12:51 PM CST (12/11) 1:17 AM CST (12/11)
Length of Visible Light 10h 21m
Length of Day
9h 19m
Waxing Gibbous, 72% of the Moon is Illuminated
Dec 11
Waxing Gibbous
Dec 17
Full
Dec 25
Last Quarter
Jan 1
New
Jan 7
First Quarter

Hourly Weather History & Observations

Time (CST) Temp. Windchill Dew Point Humidity Pressure Visibility Wind Dir Wind Speed Gust Speed Precip Events Conditions
12:15 AM 14.0 °F 3.9 °F 6.8 °F 73% 30.29 in 10.0 mi WSW 6.9 mph - N/A   Clear
12:35 AM 14.0 °F 5.1 °F 6.8 °F 73% 30.28 in 10.0 mi SW 5.8 mph - N/A   Clear
12:55 AM 14.0 °F 3.9 °F 8.6 °F 79% 30.29 in 10.0 mi SW 6.9 mph - N/A   Clear
1:15 AM 14.0 °F 3.9 °F 8.6 °F 79% 30.30 in 10.0 mi SW 6.9 mph - N/A   Clear
1:35 AM 15.8 °F 6.1 °F 8.6 °F 73% 30.29 in 10.0 mi SW 6.9 mph - N/A   Clear
1:55 AM 15.8 °F 7.2 °F 8.6 °F 73% 30.30 in 10.0 mi SSW 5.8 mph - N/A   Clear
2:15 AM 15.8 °F 7.2 °F 8.6 °F 73% 30.31 in 10.0 mi SW 5.8 mph - N/A   Clear
2:35 AM 17.6 °F 10.7 °F 8.6 °F 68% 30.30 in 10.0 mi WSW 4.6 mph - N/A   Mostly Cloudy
2:55 AM 17.6 °F 10.7 °F 10.4 °F 73% 30.30 in 10.0 mi SW 4.6 mph - N/A   Overcast
3:15 AM 17.6 °F 10.7 °F 8.6 °F 68% 30.30 in 10.0 mi SW 4.6 mph - N/A   Partly Cloudy
3:35 AM 17.6 °F 10.7 °F 8.6 °F 68% 30.30 in 10.0 mi SW 4.6 mph - N/A   Scattered Clouds
3:55 AM 17.6 °F 9.3 °F 10.4 °F 73% 30.29 in 10.0 mi SW 5.8 mph - N/A   Overcast
4:15 AM 19.4 °F 10.4 °F 8.6 °F 63% 30.29 in 10.0 mi SW 6.9 mph - N/A   Overcast
4:35 AM 19.4 °F 12.8 °F 8.6 °F 63% 30.28 in 10.0 mi SW 4.6 mph - N/A   Overcast
4:55 AM 19.4 °F - 10.4 °F 68% 30.28 in 10.0 mi Calm Calm - N/A   Overcast
5:15 AM 19.4 °F - 8.6 °F 63% 30.28 in 10.0 mi Calm Calm - N/A   Overcast
5:35 AM 19.4 °F - 10.4 °F 68% 30.29 in 10.0 mi Calm Calm - N/A   Overcast
5:55 AM 19.4 °F 14.3 °F 8.6 °F 63% 30.29 in 10.0 mi SW 3.5 mph - N/A   Overcast
6:15 AM 19.4 °F 14.3 °F 10.4 °F 68% 30.30 in 10.0 mi SSW 3.5 mph - N/A   Overcast
6:35 AM 19.4 °F 14.3 °F 12.2 °F 74% 30.30 in 10.0 mi South 3.5 mph - N/A   Overcast
6:55 AM 19.4 °F 10.4 °F 12.2 °F 74% 30.30 in 10.0 mi South 6.9 mph - N/A   Mostly Cloudy
7:15 AM 19.4 °F 11.5 °F 12.2 °F 74% 30.28 in 10.0 mi SSE 5.8 mph - N/A   Overcast
7:35 AM 19.4 °F 11.5 °F 12.2 °F 74% 30.28 in 10.0 mi South 5.8 mph - N/A   Mostly Cloudy
7:55 AM 19.4 °F 10.4 °F 12.2 °F 74% 30.29 in 10.0 mi South 6.9 mph - N/A   Clear
8:15 AM 21.2 °F 11.7 °F 12.2 °F 68% 30.29 in 10.0 mi South 8.1 mph - N/A   Clear
8:35 AM 21.2 °F 12.6 °F 14.0 °F 74% 30.30 in 10.0 mi South 6.9 mph - N/A   Partly Cloudy
8:55 AM 23.0 °F 15.8 °F 15.8 °F 74% 30.30 in 10.0 mi SSW 5.8 mph - N/A   Scattered Clouds
9:15 AM 23.0 °F 17.0 °F 15.8 °F 74% 30.31 in 10.0 mi SW 4.6 mph - N/A   Mostly Cloudy
9:35 AM 24.8 °F - 15.8 °F 69% 30.31 in 10.0 mi Calm Calm - N/A   Scattered Clouds
9:55 AM 24.8 °F - 15.8 °F 69% 30.30 in 10.0 mi Calm Calm - N/A   Clear
10:15 AM 26.6 °F 19.1 °F 17.6 °F 69% 30.30 in 10.0 mi NW 6.9 mph - N/A   Partly Cloudy
10:35 AM 26.6 °F 18.2 °F 15.8 °F 64% 30.30 in 10.0 mi NNW 8.1 mph - N/A   Scattered Clouds
10:55 AM 26.6 °F 18.2 °F 14.0 °F 59% 30.30 in 10.0 mi North 8.1 mph - N/A   Mostly Cloudy
11:15 AM 26.6 °F 16.8 °F 12.2 °F 55% 30.30 in 10.0 mi North 10.4 mph - N/A   Overcast
11:35 AM 24.8 °F 14.6 °F 15.8 °F 69% 30.30 in 9.0 mi North 10.4 mph - N/A   Overcast
11:55 AM 24.8 °F 15.3 °F 15.8 °F 69% 30.30 in 3.0 mi NNW 9.2 mph - N/A   Mostly Cloudy
12:15 PM 23.0 °F 11.7 °F 19.4 °F 86% 30.30 in 1.8 mi NNW 11.5 mph - N/A   Overcast
12:35 PM 23.0 °F 11.1 °F 19.4 °F 86% 30.30 in 6.0 mi NNW 12.7 mph - N/A   Overcast
12:55 PM 23.0 °F 12.4 °F 17.6 °F 80% 30.31 in 8.0 mi NW 10.4 mph - N/A   Overcast
1:15 PM 23.0 °F 10.6 °F 17.6 °F 80% 30.31 in 7.0 mi NNW 13.8 mph - N/A   Overcast
1:35 PM 23.0 °F 9.6 °F 17.6 °F 80% 30.31 in 8.0 mi NNW 16.1 mph 19.6 mph N/A   Overcast
1:55 PM 23.0 °F 8.3 °F 17.6 °F 80% 30.32 in 10.0 mi NW 19.6 mph 23.0 mph N/A   Overcast
2:15 PM 23.0 °F 9.2 °F 15.8 °F 74% 30.33 in 10.0 mi NW 17.3 mph - N/A   Overcast
2:35 PM 23.0 °F 10.1 °F 15.8 °F 74% 30.34 in 10.0 mi NNW 15.0 mph - N/A   Overcast
2:55 PM 21.2 °F 7.8 °F 14.0 °F 74% 30.36 in 10.0 mi NNW 15.0 mph - N/A   Overcast
3:15 PM 21.2 °F 7.8 °F 14.0 °F 74% 30.36 in 10.0 mi NW 15.0 mph 21.9 mph N/A   Overcast
3:35 PM 21.2 °F 6.8 °F 14.0 °F 74% 30.37 in 10.0 mi NW 17.3 mph - N/A   Overcast
3:55 PM 21.2 °F 7.8 °F 15.8 °F 80% 30.38 in 7.0 mi WNW 15.0 mph - N/A   Overcast
4:15 PM 21.2 °F 8.9 °F 15.8 °F 80% 30.39 in 5.0 mi NW 12.7 mph - N/A   Overcast
4:35 PM 19.4 °F 7.9 °F 15.8 °F 86% 30.40 in 7.0 mi WNW 10.4 mph - N/A   Mostly Cloudy
4:55 PM 19.4 °F 7.9 °F 10.4 °F 68% 30.41 in 10.0 mi WNW 10.4 mph - N/A   Scattered Clouds
5:15 PM 19.4 °F 7.9 °F 12.2 °F 74% 30.42 in 10.0 mi WNW 10.4 mph - N/A   Scattered Clouds
5:35 PM 17.6 °F 3.2 °F 10.4 °F 73% 30.43 in 10.0 mi WNW 15.0 mph - N/A   Overcast
5:55 PM 17.6 °F 3.7 °F 8.6 °F 68% 30.44 in 10.0 mi WNW 13.8 mph - N/A   Mostly Cloudy
6:15 PM 15.8 °F 0.3 °F 8.6 °F 73% 30.44 in 10.0 mi WNW 16.1 mph - N/A   Partly Cloudy
6:35 PM 17.6 °F 5.0 °F 8.6 °F 68% 30.46 in 10.0 mi WNW 11.5 mph - N/A   Mostly Cloudy
6:55 PM 15.8 °F -0.2 °F 8.6 °F 73% 30.46 in 10.0 mi WNW 17.3 mph - N/A   Overcast
7:15 PM 15.8 °F -0.6 °F 6.8 °F 68% 30.47 in 10.0 mi WNW 18.4 mph 21.9 mph N/A   Scattered Clouds
7:35 PM 14.0 °F -1.4 °F 6.8 °F 73% 30.47 in 10.0 mi NW 15.0 mph 19.6 mph N/A   Clear
7:55 PM 14.0 °F -1.4 °F 6.8 °F 73% 30.47 in 10.0 mi NW 15.0 mph 18.4 mph N/A   Clear
8:15 PM 12.2 °F -3.1 °F 6.8 °F 79% 30.48 in 10.0 mi WNW 13.8 mph - N/A   Clear
8:35 PM 12.2 °F -1.0 °F 5.0 °F 73% 30.48 in 10.0 mi WNW 10.4 mph 18.4 mph N/A   Clear
8:55 PM 12.2 °F -2.5 °F 5.0 °F 73% 30.49 in 10.0 mi WNW 12.7 mph - N/A   Clear
9:15 PM 10.4 °F -3.3 °F 5.0 °F 79% 30.49 in 10.0 mi WNW 10.4 mph - N/A   Clear
9:35 PM 10.4 °F -4.1 °F 5.0 °F 79% 30.49 in 10.0 mi WNW 11.5 mph - N/A   Clear
9:55 PM 10.4 °F -4.1 °F 3.2 °F 73% 30.49 in 10.0 mi WNW 11.5 mph - N/A   Clear
10:15 PM 8.6 °F -5.5 °F 1.4 °F 73% 30.50 in 10.0 mi WNW 10.4 mph - N/A   Clear
10:35 PM 8.6 °F -4.7 °F 1.4 °F 73% 30.50 in 10.0 mi WNW 9.2 mph - N/A   Clear
10:55 PM 8.6 °F -7.0 °F 1.4 °F 73% 30.50 in 10.0 mi WNW 12.7 mph - N/A   Clear
11:15 PM 8.6 °F -5.5 °F 1.4 °F 73% 30.51 in 10.0 mi West 10.4 mph - N/A   Clear
11:35 PM 6.8 °F -10.0 °F 1.4 °F 79% 30.53 in 10.0 mi West 13.8 mph - N/A   Clear
11:55 PM 6.8 °F -10.7 °F 1.4 °F 79% 30.52 in 10.0 mi West 15.0 mph - N/A   Clear